Simultaneous Nadir Overpasses (SNOs) Predictions

Prediction of SNOs between GOES-17 and AQUA Satellite Orbit:

Table of predicted SNOs for the next 14.0 days since TLE Epoch: 4/8/2022
Index Date Time (GOES-17) GOES-17 Lat,Lon AQUA Lat,Lon Distance(km) Time Diff (sec)
1 04/09/2022 10:34:14 -0.04,-137.21 -0.60,-134.63 294.09 80
2 04/09/2022 22:58:15 0.04,-137.20 -0.54,-139.79 295.82 80
3 04/11/2022 22:43:13 0.03,-137.19 0.11,-136.79 45.41 80
4 04/13/2022 22:30:50 0.03,-137.18 0.72,-133.77 386.31 80
5 04/14/2022 10:54:42 -0.02,-137.18 0.33,-138.92 197.68 80
6 04/16/2022 10:39:39 -0.03,-137.16 -0.31,-135.91 142.60 80
7 04/16/2022 23:03:40 0.02,-137.15 -0.81,-141.09 447.70 80
8 04/18/2022 10:27:16 -0.03,-137.14 -0.91,-132.89 482.07 80
9 04/18/2022 22:51:16 0.03,-137.12 -0.20,-138.07 108.46 80
10 04/20/2022 22:36:12 0.02,-137.08 0.43,-135.05 230.03 80
11 04/21/2022 11:00:04 -0.02,-137.07 0.67,-140.19 354.72 80
